Weather History for KLWT - April, 2013

Change the Weather History Date:

Monday, April 1, 2013

  Actual Average Record
Temperature  
Mean Temperature 39 °F 38 °F  
Max Temperature 55 °F 49 °F 71 °F (1991)
Min Temperature 22 °F 26 °F -12 °F (1908)
Degree Days  
Heating Degree Days 26 27  
Month to date heating degree days 26 27  
Since 1 July heating degree days 6580 6826  
Cooling Degree Days 0 0  
Month to date cooling degree days 0 0  
Year to date cooling degree days 0 0  
Moisture  
Dew Point 22 °F    
Average Humidity 55    
Maximum Humidity 81    
Minimum Humidity 28    
Precipitation  
Precipitation 0.00 in 0.04 in 0.47 in (1916)
Month to date precipitation 0.00 0.04  
Year to date precipitation 2.13 2.04  
Snow  
Snow 0.00 in - - ()
Snow Depth 0.00 in    
Sea Level Pressure  
Sea Level Pressure 30.13 in    
Wind  
Wind Speed 9 mph (East)    
Max Wind Speed 21 mph    
Max Gust Speed 26 mph    
Visibility 10 miles    
Events      
T = Trace of Precipitation, MM = Missing Value Source: NWS Daily Summary

Daily Weather History Graph

Daily Weather History Graph

Search for Another Location

Airport or City:

Trip Planner

Search our weather history database for the weather conditions in past years. The results will help you decide how hot, cold, wet, or windy it might be!

Date:

Astronomy

Apr. 01, 2013 Rise Set
Actual Time 6:56 AM MDT 7:47 PM MDT
Civil Twilight 6:25 AM MDT 8:18 PM MDT
Nautical Twilight 5:48 AM MDT 8:55 PM MDT
Astronomical Twilight 5:10 AM MDT 9:34 PM MDT
Moon 1:16 AM MDT (4/1) 10:29 AM MDT (4/1)
Length of Visible Light 13h 53m
Length of Day
12h 51m
Waning Gibbous, 66% of the Moon is Illuminated
Apr 1
Waning Gibbous
Apr 2
Last Quarter
Apr 10
New
Apr 18
First Quarter
Apr 25
Full

Hourly Weather History & Observations

Time (MDT) Temp. Windchill Dew Point Humidity Pressure Visibility Wind Dir Wind Speed Gust Speed Precip Events Conditions
12:54 AM 27.0 °F 20.5 °F 19.9 °F 75% 30.17 in 10.0 mi ESE 5.8 mph - N/A   Clear
1:54 AM 24.1 °F 17.0 °F 19.0 °F 81% 30.17 in 10.0 mi SE 5.8 mph - N/A   Clear
4:54 AM 25.0 °F 18.1 °F 19.0 °F 78% 30.17 in 10.0 mi ESE 5.8 mph - N/A   Clear
5:54 AM 25.0 °F 17.1 °F 19.0 °F 78% 30.17 in 10.0 mi ESE 6.9 mph - N/A   Clear
7:54 AM 28.9 °F - 21.0 °F 72% 30.19 in 10.0 mi Calm Calm - N/A   Clear
8:54 AM 35.1 °F 32.2 °F 23.0 °F 61% 30.17 in 10.0 mi SE 3.5 mph - N/A   Clear
9:54 AM 43.0 °F 40.3 °F 23.0 °F 45% 30.17 in 10.0 mi NE 4.6 mph - N/A   Clear
10:54 AM 48.0 °F - 21.0 °F 34% 30.16 in 10.0 mi East 8.1 mph - N/A   Clear
11:54 AM 50.0 °F - 21.0 °F 32% 30.15 in 10.0 mi ENE 10.4 mph - N/A   Clear
12:54 PM 51.1 °F - 21.9 °F 32% 30.14 in 10.0 mi East 6.9 mph - N/A   Clear
1:54 PM 52.0 °F - 21.9 °F 31% 30.13 in 10.0 mi Calm Calm - N/A   Clear
3:54 PM 54.0 °F - 23.0 °F 30% 30.10 in 10.0 mi East 8.1 mph - N/A   Clear
4:54 PM 54.0 °F - 23.0 °F 30% 30.08 in 10.0 mi East 11.5 mph 19.6 mph N/A   Clear
5:54 PM 52.0 °F - 23.0 °F 32% 30.09 in 10.0 mi East 17.3 mph - N/A   Clear
6:54 PM 48.9 °F - 23.0 °F 36% 30.09 in 10.0 mi East 15.0 mph 26.5 mph N/A   Clear
7:42 PM 44.6 °F 37.2 °F 24.8 °F 46% 30.04 in 10.0 mi East 17.3 mph - N/A   Partly Cloudy
7:54 PM 44.1 °F 36.8 °F 24.1 °F 45% 30.09 in 10.0 mi East 16.1 mph - N/A   Clear
8:54 PM 39.9 °F 31.4 °F 24.1 °F 53% 30.10 in 10.0 mi ESE 16.1 mph - N/A   Clear
9:54 PM 39.0 °F 30.6 °F 23.0 °F 53% 30.10 in 10.0 mi East 15.0 mph - N/A   Clear
10:54 PM 37.0 °F 27.4 °F 21.9 °F 54% 30.08 in 10.0 mi East 17.3 mph - N/A   Clear
11:54 PM 35.1 °F 25.9 °F 21.9 °F 59% 30.07 in 10.0 mi East 13.8 mph - N/A   Clear